This is the latest recevied weather packets stored in our database for station/object AE0NK. If no packets are shown the sender has not sent any weather packets the latest 10 day(s).
| Time | Temp. | Humidity | Pressure | Rain* | Wind** | Luminosity | Snow |
|---|---|---|---|---|---|---|---|
| 1777918396 | 27.22° C | 31% | 999.9 hPa | 0 mm | - | 942 W/m² | - |
| 1777917810 | 26.67° C | 31% | 999.8 hPa | 0 mm | - | 141 W/m² | - |
| 1777917504 | 26.67° C | 31% | 999.8 hPa | 0 mm | - | 851 W/m² | - |
| 1777917202 | 26.67° C | 30% | 999.8 hPa | 0 mm | - | 865 W/m² | - |
| 1777916900 | 27.22° C | 31% | 999.9 hPa | 0 mm | - | 861 W/m² | - |
| 1777916599 | 26.67° C | 32% | 999.8 hPa | 0 mm | - | 879 W/m² | - |
| 1777916297 | 26.67° C | 32% | 999.9 hPa | 0 mm | - | 861 W/m² | - |
| 1777915994 | 26.67° C | 33% | 999.9 hPa | 0 mm | - | 854 W/m² | - |
| 1777915692 | 26.11° C | 35% | 999.9 hPa | 0 mm | - | 847 W/m² | - |
| 1777915410 | 26.11° C | 34% | 1000 hPa | 0 mm | - | 861 W/m² | - |
| 1777915104 | 26.11° C | 35% | 1000 hPa | 0 mm | - | 838 W/m² | - |
| 1777914802 | 26.11° C | 36% | 1000.2 hPa | 0 mm | - | 860 W/m² | - |
| 1777914498 | 26.11° C | 35% | 1000.2 hPa | 0 mm | - | 858 W/m² | - |
| 1777914196 | 26.11° C | 37% | 1000.1 hPa | 0 mm | - | 844 W/m² | - |
| 1777913909 | 25.56° C | 36% | 1000.2 hPa | 0 mm | - | 846 W/m² | - |
| 1777913608 | 25.56° C | 36% | 1000.3 hPa | 0 mm | - | 846 W/m² | - |
| 1777913306 | 25.56° C | 38% | 1000.4 hPa | 0 mm | - | 837 W/m² | - |
| 1777913004 | 25° C | 38% | 1000.3 hPa | 0 mm | - | 838 W/m² | - |
| 1777912702 | 25° C | 39% | 1000.3 hPa | 0 mm | - | 837 W/m² | - |
| 1777912399 | 25° C | 38% | 1000.4 hPa | 0 mm | - | 831 W/m² | - |
| 1777912096 | 25° C | 42% | 1000.3 hPa | 0 mm | - | 826 W/m² | - |
| 1777911792 | 24.44° C | 40% | 1000.4 hPa | 0 mm | - | 814 W/m² | - |
| 1777911510 | 24.44° C | 42% | 1000.5 hPa | 0 mm | - | 793 W/m² | - |
| 1777911209 | 24.44° C | 42% | 1000.6 hPa | 0 mm | - | 779 W/m² | - |
| 1777910905 | 23.89° C | 42% | 1000.6 hPa | 0 mm | - | 793 W/m² | - |
* Rain latest hour (hover to see other rain measurements)
** Current wind speed in m/s (hover to see current wind gust speed)